Temp
85 84 83 83 83 84 83 84 83 83 83 83 83 84 84 83 83 83 84 84 84 84 84 84 84 84 84 84 84 84 83 84 84 84 84 83 83 83 83 84 84 86 82
89 87 83 83 83 83 83 83 83 83 83 83 83 84 84 83 83 83 83 84 84 84 84 84 84 84 84 84 84 84 83 83 84 84 85 84 84 83 83 84 84 83 83
91 87 86 83 83 83 83 83 83 83 83 84 84 84 84 84 84 84 84 84 84 84 84 85 85 85 84 85 84 84 84 83 83 84 83 83 80 83 83 84 83 83 83
93 91 88 82 83 83 83 83 84 83 83 83 83 84 84 84 84 84 84 84 84 84 85 84 84 85 85 84 84 84 84 83 83 83 83 85 82 83 84 84 83 83 82
94 94 85 83 83 83 83 83 83 83 83 84 83 84 84 84 84 84 84 84 84 84 84 84 84 85 84 84 84 84 84 84 84 84 84 85 85 85 83 83 83 83 82
93 91 84 83 83 83 83 83 83 83 83 84 84 84 84 84 84 84 84 84 84 84 84 84 84 84 84 84 84 84 84 84 84 84 85 86 85 83 84 83 85 84 83
91 89 86 83 83 83 83 83 83 83 83 84 84 84 84 84 84 84 84 84 84 84 83 83 84 84 84 84 84 83 83 83 84 84 85 86 83 82 84 84 84 83 83
93 90 87 83 83 83 83 83 83 83 84 84 84 84 84 84 84 83 83 83 84 84 83 83 83 84 84 84 84 83 83 84 88 84 84 85 84 82 84 83 83 83 83
96 91 87 86 84 84 83 84 84 84 84 84 84 84 84 84 84 84 83 84 84 84 84 84 84 84 83 84 84 83 83 84 84 85 89 86 81 83 83 83 82 82 82
95 93 89 87 87 86 85 84 84 84 84 84 84 85 85 85 85 85 83 84 84 84 84 84 84 84 84 83 83 83 84 84 85 76 78 86 83 84 84 83 82 82 82
95 92 90 90 86 87 86 86 84 84 85 85 85 85 86 88 88 88 86 85 85 85 84 84 84 84 83 83 83 83 84 84 82 86 82 81 83 83 83 82 82 82 82
93 94 93 92 91 89 94 85 86 87 88 88 91 88 82 90 79 84 89 85 85 85 84 84 84 83 84 86 88 83 84 83 85 85 83 81 82 82 81 81 81 81 82
94 94 94 91 89 94 90 89 91 90 91 89 90 85 79 78 74 77 83 85 84 84 85 85 84 86 85 79 86 82 82 85 83 81 82 80 80 81 81 81 81 81 81
94 93 94 92 90 90 92 88 93 93 79 85 90 88 74 81 79 82 84 85 84 80 85 88 87 90 88 86 89 91 88 88 85 82 81 81 80 81 81 81 81 81 80
92 93 91 90 90 90 91 90 86 90 75 92 89 91 90 87 88 89 82 82 87 86 89 87 87 88 87 87 89 88 88 87 85 83 80 82 81 81 82 82 81 81 80
93 92 91 89 88 89 87 89 90 91 92 84 87 91 93 89 88 83 86 83 87 89 89 87 87 86 85 87 87 87 85 85 85 81 80 80 80 80 80 80 80 80 79
93 93 90 88 89 87 89 89 88 91 93 88 89 92 92 91 88 88 84 85 87 85 84 84 87 85 84 88 85 85 85 85 86 82 80 79 79 80 80 80 79 79 79
93 89 90 94 89 87 88 88 90 88 90 94 91 92 94 92 91 88 86 89 89 82 85 87 86 85 82 82 83 84 82 83 86 84 80 81 79 79 79 79 79 79 79
91 89 89 88 88 88 89 90 91 93 90 88 88 90 85 83 95 84 81 90 89 84 86 87 86 84 82 83 85 83 83 83 84 87 83 82 78 77 77 79 78 78 78
91 90 90 89 87 88 87 88 90 88 91 94 92 93 91 87 94 88 83 90 89 88 87 86 84 84 83 84 89 85 84 85 84 82 83 84 81 78 77 76 74 75 76
91 89 88 88 86 87 87 86 88 88 89 92 91 93 94 94 93 90 90 90 88 84 83 86 84 82 83 85 81 81 82 85 86 82 82 80 80 80 79 76 75 74 73
90 88 87 87 86 87 88 87 89 89 86 91 88 93 95 95 93 91 90 88 86 83 84 84 82 82 83 83 79 77 74 79 81 84 81 80 79 79 79 78 76 75 74
89 88 87 87 86 86 88 89 89 88 89 89 89 88 92 93 94 93 91 89 88 84 85 84 82 82 80 82 82 77 71 69 73 79 79 79 79 77 77 76 76 76 73
93 92 88 88 86 87 88 87 86 84 84 87 88 88 91 94 94 94 92 90 88 85 84 84 85 82 81 78 79 81 81 77 71 69 76 76 76 77 75 76 75 76 73
96 94 91 88 87 87 86 86 87 85 86 89 89 88 90 91 93 96 92 92 90 87 84 84 82 81 82 78 76 76 76 76 77 70 67 71 75 76 75 74 75 75 72
98 97 94 88 86 86 86 86 84 85 84 86 87 88 87 89 90 92 94 90 88 88 85 85 83 83 81 78 76 76 73 71 69 68 66 68 69 73 76 75 75 75 71
MSLP
1011.32 1012.06 1012.49 1012.76 1012.88 1012.90 1013.10 1013.11 1013.22 1013.39 1013.59 1013.72 1013.80 1013.93 1013.94 1014.04 1014.13 1014.28 1014.26 1014.28 1014.42 1014.41 1014.46 1014.53 1014.52 1014.56 1014.59 1014.70 1014.81 1014.90 1014.91 1014.82 1014.65 1014.76 1015.08 1015.35 1015.47 1015.68 1015.83 1015.71 1015.51 1015.35 1015.51
1011.05 1011.94 1012.62 1012.91 1012.99 1013.26 1013.43 1013.43 1013.52 1013.68 1013.83 1013.95 1014.08 1014.10 1014.14 1014.21 1014.31 1014.37 1014.46 1014.46 1014.49 1014.56 1014.64 1014.62 1014.62 1014.67 1014.64 1014.68 1014.74 1014.85 1014.86 1014.76 1014.84 1015.03 1015.23 1015.50 1015.57 1015.67 1015.64 1015.64 1015.47 1015.66 1015.54
1010.80 1012.10 1012.60 1012.93 1013.17 1013.37 1013.54 1013.64 1013.81 1013.90 1014.00 1014.16 1014.25 1014.29 1014.30 1014.33 1014.39 1014.41 1014.52 1014.63 1014.67 1014.71 1014.71 1014.69 1014.73 1014.76 1014.67 1014.63 1014.71 1014.72 1014.74 1014.79 1014.92 1015.02 1015.26 1015.19 1015.14 1015.27 1015.36 1015.47 1015.45 1015.49 1015.28
1010.52 1011.51 1012.39 1013.05 1013.32 1013.51 1013.64 1013.71 1013.88 1014.04 1014.26 1014.33 1014.43 1014.44 1014.49 1014.49 1014.46 1014.49 1014.56 1014.66 1014.74 1014.73 1014.71 1014.74 1014.76 1014.74 1014.68 1014.59 1014.51 1014.49 1014.59 1014.73 1014.92 1014.98 1014.93 1014.51 1014.72 1014.93 1015.08 1015.18 1015.09 1015.03 1014.96
1010.32 1011.12 1012.63 1013.13 1013.43 1013.66 1013.86 1013.92 1014.01 1014.26 1014.44 1014.51 1014.54 1014.60 1014.65 1014.56 1014.54 1014.59 1014.61 1014.66 1014.70 1014.77 1014.75 1014.67 1014.64 1014.55 1014.51 1014.42 1014.37 1014.28 1014.23 1014.32 1014.53 1014.59 1014.30 1014.07 1014.06 1014.45 1014.75 1014.85 1014.78 1014.98 1015.12
1010.48 1011.51 1012.85 1013.30 1013.56 1013.77 1014.00 1014.17 1014.28 1014.42 1014.54 1014.58 1014.66 1014.68 1014.63 1014.61 1014.66 1014.70 1014.69 1014.71 1014.72 1014.70 1014.69 1014.69 1014.62 1014.44 1014.38 1014.30 1014.17 1014.12 1014.04 1013.95 1013.90 1013.86 1013.53 1013.38 1013.56 1014.17 1014.38 1014.39 1014.42 1014.61 1014.95
1010.96 1012.16 1012.89 1013.50 1013.78 1014.02 1014.20 1014.38 1014.45 1014.53 1014.65 1014.73 1014.72 1014.68 1014.60 1014.63 1014.64 1014.64 1014.63 1014.56 1014.54 1014.58 1014.65 1014.55 1014.44 1014.44 1014.38 1014.24 1014.14 1014.03 1013.82 1013.72 1013.68 1013.42 1013.08 1012.94 1013.41 1013.62 1014.11 1014.17 1014.26 1014.58 1014.96
1010.72 1012.12 1013.03 1013.75 1014.03 1014.17 1014.31 1014.46 1014.56 1014.58 1014.65 1014.73 1014.68 1014.63 1014.58 1014.54 1014.48 1014.48 1014.44 1014.40 1014.41 1014.45 1014.51 1014.43 1014.39 1014.34 1014.24 1014.16 1014.05 1013.83 1013.71 1013.89 1013.96 1013.85 1013.39 1013.06 1012.79 1013.04 1013.59 1013.88 1014.14 1014.61 1014.95
1010.36 1011.96 1013.10 1013.69 1014.05 1014.21 1014.44 1014.59 1014.65 1014.65 1014.69 1014.71 1014.62 1014.56 1014.62 1014.61 1014.61 1014.54 1014.39 1014.27 1014.32 1014.38 1014.33 1014.31 1014.21 1014.13 1014.01 1013.77 1013.48 1013.19 1013.21 1013.90 1013.45 1012.82 1012.71 1012.77 1013.02 1013.20 1013.54 1013.86 1014.15 1014.55 1014.91
1010.31 1011.49 1012.55 1013.32 1013.49 1013.79 1014.35 1014.49 1014.49 1014.53 1014.48 1014.41 1014.41 1014.42 1014.52 1014.65 1014.70 1014.64 1014.52 1014.30 1014.17 1014.09 1014.12 1014.05 1013.88 1013.73 1013.63 1013.58 1013.32 1013.04 1012.96 1013.52 1013.27 1012.63 1013.07 1012.45 1012.55 1013.09 1013.40 1013.71 1014.05 1014.37 1014.71
1010.56 1011.51 1012.21 1012.65 1013.21 1013.42 1013.82 1014.14 1014.35 1014.39 1014.31 1014.35 1014.28 1014.35 1014.57 1014.14 1014.05 1014.49 1014.40 1014.11 1013.78 1013.63 1013.64 1013.57 1013.44 1013.31 1013.30 1013.16 1012.75 1012.48 1012.43 1012.42 1013.05 1012.71 1013.00 1012.81 1012.78 1013.02 1013.28 1013.56 1013.90 1014.23 1014.53
1010.54 1011.10 1011.99 1012.40 1012.74 1013.02 1013.10 1013.80 1013.86 1014.00 1013.83 1014.05 1013.78 1013.65 1013.88 1013.14 1014.29 1014.43 1014.16 1013.82 1013.48 1013.25 1013.32 1013.31 1013.13 1013.23 1013.02 1012.67 1011.87 1012.63 1012.49 1012.76 1012.23 1012.45 1013.08 1012.79 1013.05 1013.15 1013.23 1013.47 1013.80 1014.05 1014.18
1010.40 1010.90 1011.71 1012.46 1012.54 1012.39 1012.96 1013.13 1013.17 1013.35 1013.45 1013.71 1013.78 1013.91 1013.29 1014.18 1014.63 1014.07 1013.99 1013.92 1013.58 1013.30 1013.12 1012.79 1012.84 1012.93 1012.38 1012.97 1011.87 1011.74 1012.23 1012.00 1012.50 1012.00 1013.14 1012.79 1013.09 1013.15 1013.25 1013.49 1013.73 1013.86 1013.93
1010.37 1011.11 1011.68 1012.43 1012.55 1012.56 1012.58 1012.69 1012.55 1012.77 1013.47 1013.66 1013.25 1013.81 1014.64 1013.55 1013.94 1013.81 1013.42 1013.44 1013.20 1012.67 1012.66 1012.26 1012.40 1011.96 1012.22 1012.23 1011.67 1011.27 1011.69 1011.78 1012.26 1012.43 1013.35 1013.08 1013.14 1013.23 1013.37 1013.54 1013.66 1013.77 1013.75
1010.50 1011.27 1012.01 1012.75 1012.91 1012.72 1012.84 1012.49 1012.79 1012.98 1013.98 1012.92 1013.28 1013.31 1013.34 1013.66 1013.78 1013.49 1013.54 1013.19 1012.74 1012.54 1012.21 1012.32 1012.01 1011.90 1012.01 1011.79 1011.46 1011.67 1012.04 1012.20 1012.68 1013.05 1013.32 1013.44 1013.27 1013.46 1013.59 1013.74 1013.87 1013.91 1013.93
1010.62 1011.42 1012.37 1013.14 1013.38 1013.32 1013.45 1013.09 1012.92 1012.74 1012.54 1013.61 1013.13 1012.97 1013.11 1013.39 1013.30 1013.18 1013.30 1013.19 1012.50 1012.37 1012.20 1012.14 1012.29 1011.91 1012.26 1012.06 1012.01 1011.78 1012.24 1012.21 1012.42 1012.89 1013.44 1013.64 1013.72 1013.78 1013.98 1014.06 1014.16 1014.19 1014.25
1010.65 1011.27 1012.26 1013.06 1013.49 1013.69 1013.55 1013.40 1013.13 1013.03 1012.48 1013.02 1012.71 1012.81 1012.85 1012.90 1012.63 1012.77 1012.89 1012.72 1012.60 1012.81 1012.44 1012.17 1011.94 1011.69 1012.03 1011.81 1012.05 1012.34 1012.07 1012.10 1012.06 1012.76 1013.34 1013.75 1014.05 1014.25 1014.14 1014.36 1014.45 1014.51 1014.48
1010.49 1011.26 1012.06 1012.30 1013.32 1013.69 1013.63 1013.47 1013.04 1012.88 1012.59 1012.22 1012.72 1012.77 1012.62 1012.51 1012.37 1012.56 1012.89 1012.59 1012.51 1012.86 1012.75 1012.38 1012.36 1012.36 1012.19 1011.76 1012.25 1012.00 1011.97 1011.81 1011.97 1012.38 1013.25 1013.42 1013.90 1014.39 1014.41 1014.64 1014.72 1014.71 1014.74
1010.51 1011.27 1011.77 1012.31 1013.06 1013.41 1013.47 1013.25 1013.00 1012.75 1012.64 1012.50 1012.84 1012.88 1013.19 1012.99 1012.23 1013.09 1013.50 1012.32 1012.05 1012.42 1012.77 1012.50 1012.68 1012.55 1012.30 1011.95 1011.79 1012.14 1012.04 1011.82 1011.87 1012.17 1012.62 1012.95 1013.86 1014.40 1014.64 1014.93 1015.10 1015.12 1015.16
1010.64 1011.27 1011.65 1012.17 1012.74 1013.15 1013.38 1013.41 1013.13 1013.02 1012.67 1012.16 1012.28 1012.47 1012.79 1012.99 1012.45 1012.80 1012.95 1012.53 1012.39 1012.43 1012.49 1012.75 1012.79 1012.33 1012.02 1011.92 1011.47 1011.86 1011.93 1011.79 1011.83 1012.08 1012.52 1012.86 1013.42 1014.29 1014.61 1014.96 1015.35 1015.51 1015.66
1010.54 1011.30 1011.69 1012.02 1012.53 1012.93 1013.23 1013.31 1012.98 1012.83 1012.52 1012.22 1012.38 1012.42 1012.66 1012.73 1012.65 1012.66 1012.82 1012.80 1012.76 1013.02 1012.97 1012.93 1012.86 1012.45 1012.11 1011.70 1011.79 1011.84 1011.74 1011.69 1011.97 1012.16 1012.47 1012.96 1013.32 1013.61 1014.09 1014.79 1015.07 1015.46 1015.86
1010.17 1011.05 1011.62 1011.99 1012.50 1012.86 1013.00 1012.87 1012.75 1012.67 1012.75 1012.49 1012.56 1012.44 1012.52 1012.68 1012.70 1012.69 1012.93 1012.94 1013.01 1013.18 1013.08 1012.85 1012.98 1012.71 1012.26 1012.08 1012.07 1012.12 1012.07 1012.19 1012.29 1012.24 1012.53 1012.86 1013.16 1013.19 1013.90 1014.21 1014.51 1014.81 1015.10
1009.46 1010.50 1011.31 1011.83 1012.36 1012.76 1012.73 1012.71 1012.78 1012.85 1012.76 1012.59 1012.42 1012.41 1012.61 1012.50 1012.53 1012.49 1012.70 1012.99 1013.01 1013.11 1013.02 1013.02 1013.16 1013.18 1012.99 1012.49 1012.40 1012.66 1012.77 1013.10 1012.86 1012.56 1012.60 1012.74 1012.94 1013.27 1013.61 1013.75 1014.04 1014.31 1014.86
1008.66 1009.76 1010.64 1011.34 1011.91 1012.40 1012.55 1012.63 1012.73 1013.01 1012.92 1012.64 1012.46 1012.58 1012.45 1012.26 1012.48 1012.44 1012.63 1012.84 1013.09 1013.20 1013.20 1013.22 1013.38 1013.34 1013.18 1013.08 1012.80 1012.91 1012.94 1013.17 1013.25 1013.18 1012.81 1012.95 1013.05 1013.23 1013.36 1013.31 1013.76 1014.07 1014.78
1007.84 1008.79 1009.90 1010.79 1011.42 1011.85 1012.33 1012.41 1012.48 1012.85 1012.75 1012.58 1012.39 1012.62 1012.59 1012.60 1012.40 1012.22 1012.51 1012.72 1013.08 1013.19 1013.43 1013.54 1013.64 1013.62 1013.40 1013.46 1013.52 1013.47 1013.31 1013.39 1013.74 1013.94 1013.73 1013.49 1013.09 1013.22 1013.17 1013.08 1013.35 1013.55 1014.67
1007.10 1007.99 1008.98 1010.18 1010.99 1011.52 1011.93 1012.25 1012.42 1012.45 1012.60 1012.74 1012.57 1012.58 1012.52 1012.44 1012.43 1012.41 1012.47 1012.73 1012.90 1013.15 1013.42 1013.61 1013.81 1013.73 1013.83 1013.97 1014.12 1014.14 1014.00 1014.16 1014.34 1014.43 1014.50 1014.14 1013.79 1013.37 1012.79 1012.78 1013.12 1013.71 1014.77
Wind_Speed
12 12 10 9 7 9 8 9 10 10 9 8 9 9 8 8 9 8 7 7 8 8 8 8 8 7 6 6 5 5 4 6 5 5 7 8 8 6 6 5 3 10 11
17 14 10 10 9 10 9 9 9 9 10 9 9 9 9 10 9 8 7 7 7 7 6 7 7 6 5 4 3 3 2 2 4 6 7 8 7 7 6 7 9 10 11
18 15 13 10 10 10 10 9 10 11 9 9 8 9 9 9 8 8 7 6 6 5 5 4 4 3 2 3 3 3 2 1 1 1 4 4 5 7 7 8 10 10 10
17 14 13 10 10 10 9 9 10 11 9 9 9 9 9 8 7 7 6 6 5 4 5 5 5 5 5 4 4 4 3 4 4 6 5 9 9 14 10 9 10 9 10
16 14 15 12 10 10 10 10 9 11 9 10 9 9 9 8 7 5 4 4 4 4 4 5 5 6 4 4 4 5 6 6 7 8 8 5 5 12 13 11 9 8 9
10 18 16 12 10 10 10 10 9 9 8 8 8 7 6 4 3 2 2 2 3 3 3 5 5 5 5 7 6 6 6 8 8 8 8 5 5 15 14 14 12 12 11
17 16 15 12 12 11 10 9 9 8 7 6 5 4 2 1 1 2 3 3 1 1 3 5 5 6 6 6 7 8 10 11 9 9 6 6 7 17 15 14 12 9 10
20 17 14 12 12 10 10 8 8 7 6 5 4 3 3 3 3 2 1 1 1 1 2 3 3 4 6 8 9 10 10 9 8 9 5 8 8 18 16 14 12 10 10
21 18 13 12 11 11 10 9 7 7 6 5 5 5 4 4 4 4 3 2 1 0 3 5 6 7 7 9 10 11 12 7 7 9 10 7 13 16 15 11 10 9 10
17 16 14 11 12 11 10 10 8 9 8 7 7 7 7 7 8 7 7 5 4 3 5 7 9 10 12 12 13 14 14 11 8 10 8 4 16 13 9 6 8 9 9
16 14 13 12 11 9 9 9 8 8 8 8 8 9 6 6 8 9 7 10 9 8 9 11 12 13 14 14 17 17 17 6 8 9 2 12 12 9 7 5 5 7 9
11 15 13 10 10 11 9 9 9 8 7 6 2 4 4 4 13 15 5 12 11 11 12 13 15 13 13 8 6 12 5 2 7 6 3 11 9 7 5 2 4 6 9
12 12 13 11 9 11 8 8 6 5 5 3 3 6 3 10 6 7 4 2 4 6 6 10 6 6 8 1 6 8 4 8 4 6 5 12 10 8 6 3 3 7 9
12 13 14 10 4 8 6 3 5 5 2 3 4 7 3 2 6 4 0 3 3 2 5 3 4 3 4 5 6 5 8 5 4 7 5 12 11 9 7 5 6 6 7
11 10 13 7 2 2 2 2 2 7 6 4 5 2 3 4 0 2 1 4 1 3 2 2 3 5 2 4 4 8 9 9 8 5 4 12 13 11 11 11 11 10 9
10 11 13 9 4 2 5 4 2 3 1 8 5 4 3 3 1 2 1 4 4 3 4 4 2 6 6 3 4 6 5 5 7 7 5 7 13 13 15 15 15 16 16
11 11 12 12 8 5 3 2 4 1 5 1 3 5 3 3 5 4 2 4 4 5 5 2 4 3 2 1 6 4 4 5 2 10 8 7 9 14 16 15 16 16 15
12 10 11 12 11 7 6 5 5 5 5 2 6 3 3 4 5 3 3 1 4 4 5 4 5 6 4 4 6 4 4 4 3 4 7 8 7 6 11 15 13 14 15
12 10 8 13 11 9 4 3 5 2 3 5 9 3 11 11 2 12 10 3 4 3 2 4 5 4 3 4 1 3 3 3 4 8 6 5 11 7 5 12 11 11 13
12 10 7 9 9 7 6 3 4 2 5 3 3 4 5 5 4 4 5 3 7 2 5 4 4 5 4 1 6 5 4 2 4 5 6 7 5 10 8 8 4 6 12
13 10 9 7 9 5 5 5 4 5 5 3 5 6 1 2 3 5 5 5 5 8 4 3 4 6 6 3 3 2 3 3 4 5 5 6 5 5 6 9 4 5 6
15 12 10 8 9 6 5 4 1 3 3 4 3 3 2 2 4 3 4 5 6 2 3 4 4 4 4 3 2 3 2 2 3 4 4 6 5 5 7 6 6 4 6
17 15 11 10 11 8 7 3 2 3 1 2 1 2 3 3 3 4 3 3 4 5 5 4 5 6 6 4 5 3 4 4 5 2 3 4 3 4 5 6 6 4 11
17 16 15 12 11 9 7 5 5 4 4 3 4 3 3 3 2 2 4 3 4 3 5 5 5 5 3 5 4 5 1 3 1 4 2 3 4 3 5 1 6 5 11
15 16 15 14 11 9 9 7 5 3 4 2 3 5 0 2 4 2 5 2 1 4 4 4 5 5 3 4 3 4 4 4 3 3 4 3 3 6 5 5 4 5 10
15 15 16 15 12 10 11 9 7 6 6 3 4 3 4 6 5 3 3 3 4 3 4 4 4 4 4 5 5 5 3 3 4 4 4 5 5 1 4 5 5 6 8
Wind_Direction
125 123 124 114 108 100 100 93 81 78 82 80 89 81 78 82 83 82 74 69 76 72 74 71 63 57 43 47 56 78 101 126 114 100 108 102 97 101 117 94 18 106 106
124 130 126 124 106 104 95 85 92 90 83 82 87 84 80 77 81 80 73 73 63 63 67 58 57 54 43 42 38 81 113 112 141 156 137 131 142 153 134 99 62 112 117
129 127 133 122 109 99 103 98 91 86 84 88 91 83 76 77 73 68 66 65 64 58 50 35 29 21 345 346 343 354 20 314 265 257 178 182 106 191 164 131 122 135 124
123 144 128 120 109 99 96 91 90 81 75 87 85 81 76 78 79 70 61 55 48 36 16 347 334 328 326 316 310 293 285 270 260 262 246 171 173 190 175 158 145 146 141
124 115 119 120 113 107 97 97 86 85 81 88 82 75 70 65 62 53 35 16 5 351 331 323 327 327 313 312 326 320 292 267 265 266 241 211 168 175 171 166 155 163 171
130 115 119 123 121 112 106 101 100 96 88 82 82 74 71 73 64 30 351 322 311 311 318 319 295 289 308 312 311 302 283 274 255 248 248 214 230 161 171 176 182 187 187
108 119 123 125 123 120 122 116 115 116 109 104 103 106 114 132 227 269 288 294 285 225 317 312 267 269 288 287 292 292 280 274 254 246 240 205 136 161 181 186 188 192 186
125 116 127 132 126 131 126 129 122 129 130 136 154 167 200 221 219 217 238 301 288 330 282 299 290 282 287 280 274 271 264 267 254 255 265 260 195 172 181 187 186 198 206
118 122 137 132 134 136 140 140 147 151 162 170 192 214 225 229 213 190 176 148 92 359 261 273 288 293 283 275 264 250 242 230 248 293 258 225 162 170 183 184 190 203 219
129 136 127 140 154 156 157 155 159 176 185 193 215 223 220 227 224 197 178 177 192 239 257 260 261 260 257 263 262 259 247 226 225 222 323 207 151 164 165 177 200 215 222
114 124 144 164 158 136 138 165 187 203 206 213 232 229 237 236 185 196 178 178 208 218 229 241 247 254 256 259 254 248 250 244 213 210 213 143 132 135 135 160 208 227 238
136 141 128 151 146 161 139 161 190 187 206 205 177 318 204 104 27 350 259 204 214 224 230 242 250 258 269 258 237 257 259 332 289 97 89 87 85 96 106 131 248 256 256
160 123 152 125 194 170 147 190 190 174 152 139 159 52 3 78 199 232 262 268 228 261 243 224 248 224 246 65 290 215 153 238 17 88 93 93 85 83 64 38 280 263 259
151 131 123 152 185 121 194 220 140 138 149 215 135 163 137 302 164 247 275 183 110 246 323 346 183 309 43 317 270 6 59 79 115 90 91 83 79 71 55 16 335 322 301
130 143 113 116 74 82 312 52 38 99 222 208 136 119 340 145 134 265 94 314 260 220 276 98 336 302 350 240 54 54 48 41 94 97 84 85 81 74 72 59 50 48 34
137 135 124 141 131 166 272 50 328 294 258 110 185 138 145 43 346 186 314 240 271 45 335 330 80 280 316 51 66 89 79 69 93 113 111 88 84 86 85 74 69 67 60
144 145 144 144 161 163 175 210 245 313 286 220 142 130 123 77 303 335 307 291 51 7 311 280 305 297 41 264 120 112 111 122 184 132 123 115 100 103 103 90 86 84 78
148 143 160 157 147 182 175 221 289 175 244 287 123 128 114 178 224 315 279 298 89 275 304 320 37 342 3 342 160 156 174 143 197 113 138 139 134 117 105 102 100 96 89
133 134 179 128 159 178 150 220 262 46 299 268 137 183 55 323 311 58 326 319 311 213 221 29 358 329 303 294 219 123 203 187 173 117 115 87 135 130 122 110 102 93 83
140 147 169 144 149 176 147 260 264 176 274 244 115 84 120 235 8 112 224 325 310 44 43 33 320 298 283 200 338 162 174 192 103 132 129 106 98 137 142 128 132 96 91
153 161 153 164 145 159 163 201 236 200 223 250 128 112 92 3 338 334 359 16 5 44 72 330 357 328 329 65 29 322 156 193 147 125 114 114 113 117 107 151 161 127 118
154 162 165 166 153 190 206 232 264 329 49 359 110 150 126 149 303 102 21 348 357 39 55 48 21 341 332 23 50 346 8 199 85 95 107 123 148 163 137 140 132 138 135
158 164 174 174 164 195 215 216 115 334 282 316 269 214 217 212 271 108 54 22 344 13 37 29 16 20 332 353 67 76 3 21 323 113 178 124 129 93 150 150 154 172 105
163 166 168 180 173 192 213 198 188 196 238 215 234 105 213 113 301 293 100 41 4 7 32 33 36 344 1 8 9 24 172 170 227 325 22 132 144 174 120 195 133 185 110
177 170 166 174 180 189 193 240 169 226 266 261 296 130 254 220 214 212 101 75 61 41 49 58 33 21 25 35 14 347 1 11 27 359 333 334 247 160 170 173 134 107 116
182 177 172 171 183 196 183 205 239 185 243 315 279 148 238 205 216 123 80 42 94 56 63 71 36 45 28 51 14 7 38 44 8 7 349 337 332 348 185 132 113 94 109